LVBDC SADF-SAAR

Flight info

Callsign LVBDC
Flight time 0h 31m
Altitude 24000
Route DCT ATOVO W5 ESKON DCT
Aircraft C25B/M-SDE1E2E3FGHIJ2J3J4J5M1RWXYZ/LB1

Departure

Time 2026-05-04 22:13
Airport San Fernando Airport (SADF)

Arrival

Time 2026-05-04 22:44
Airport Rosario Islas Malvinas International Airport (SAAR)
Time Latitude Longitude Altitude Speed Heading
2026-05-04 21:44 -34.45561 -58.58399 16 ft 0 kts 211°
2026-05-04 22:08 -34.45567 -58.58407 16 ft 7 kts 244°
2026-05-04 22:08 -34.45546 -58.58457 16 ft 8 kts 275°
2026-05-04 22:08 -34.45567 -58.58528 16 ft 10 kts 242°
2026-05-04 22:08 -34.45603 -58.58610 16 ft 12 kts 243°
2026-05-04 22:09 -34.45644 -58.58709 16 ft 14 kts 240°
2026-05-04 22:09 -34.45692 -58.58817 16 ft 15 kts 243°
2026-05-04 22:09 -34.45742 -58.58937 16 ft 17 kts 244°
2026-05-04 22:09 -34.45798 -58.59067 16 ft 18 kts 242°
2026-05-04 22:10 -34.45858 -58.59206 16 ft 19 kts 242°
2026-05-04 22:10 -34.45921 -58.59352 16 ft 20 kts 243°
2026-05-04 22:10 -34.45984 -58.59501 17 ft 19 kts 244°
2026-05-04 22:10 -34.46023 -58.59594 17 ft 0 kts 237°
2026-05-04 22:12 -34.46024 -58.59594 17 ft 1 kts 237°
2026-05-04 22:12 -34.46019 -58.59659 18 ft 11 kts 311°
2026-05-04 22:12 -34.45971 -58.59699 19 ft 4 kts 45°
2026-05-04 22:12 -34.45949 -58.59658 20 ft 17 kts 41°
2026-05-04 22:13 -34.45542 -58.59164 39 ft 148 kts 46°
2026-05-04 22:13 -34.44612 -58.58099 596 ft 214 kts 42°
2026-05-04 22:13 -34.43415 -58.56733 1434 ft 256 kts 42°
2026-05-04 22:13 -34.42094 -58.55220 2532 ft 260 kts 39°
2026-05-04 22:14 -34.40594 -58.53932 3136 ft 261 kts 25°
2026-05-04 22:14 -34.38958 -58.53518 3322 ft 224 kts 351°
2026-05-04 22:14 -34.37532 -58.53728 3442 ft 194 kts 349°
2026-05-04 22:14 -34.36207 -58.54003 3208 ft 188 kts 345°
2026-05-04 22:15 -34.34933 -58.54373 3042 ft 195 kts 343°
2026-05-04 22:15 -34.33524 -58.54972 3141 ft 248 kts 332°
2026-05-04 22:15 -34.32122 -58.56505 4016 ft 293 kts 308°
2026-05-04 22:15 -34.31023 -58.58381 4784 ft 257 kts 304°
2026-05-04 22:16 -34.30052 -58.60087 5206 ft 234 kts 304°
2026-05-04 22:16 -34.29175 -58.61737 5915 ft 252 kts 302°
2026-05-04 22:16 -34.28168 -58.63712 6631 ft 294 kts 300°
2026-05-04 22:16 -34.27201 -58.65961 7858 ft 309 kts 295°
2026-05-04 22:17 -34.26237 -58.68258 9086 ft 327 kts 295°
2026-05-04 22:17 -34.25199 -58.70860 8966 ft 338 kts 291°
2026-05-04 22:17 -34.24380 -58.73427 8869 ft 318 kts 290°
2026-05-04 22:17 -34.23497 -58.75874 8970 ft 329 kts 295°
2026-05-04 22:18 -34.22374 -58.78258 10464 ft 325 kts 297°
2026-05-04 22:18 -34.21272 -58.80673 11754 ft 331 kts 294°
2026-05-04 22:18 -34.20205 -58.83160 13075 ft 336 kts 294°
2026-05-04 22:18 -34.19115 -58.85675 14305 ft 341 kts 294°
2026-05-04 22:19 -34.17982 -58.88221 15464 ft 346 kts 294°
2026-05-04 22:19 -34.16844 -58.90800 16603 ft 351 kts 294°
2026-05-04 22:19 -34.15686 -58.93423 17720 ft 356 kts 294°
2026-05-04 22:19 -34.14517 -58.96082 18727 ft 361 kts 293°
2026-05-04 22:20 -34.13324 -58.98772 19704 ft 365 kts 294°
2026-05-04 22:20 -34.12128 -59.01482 20672 ft 368 kts 293°
2026-05-04 22:20 -34.10915 -59.04220 21597 ft 372 kts 294°
2026-05-04 22:20 -34.09696 -59.06978 22233 ft 372 kts 294°
2026-05-04 22:21 -34.08469 -59.09737 22232 ft 374 kts 294°
2026-05-04 22:21 -34.07242 -59.12513 22366 ft 377 kts 294°
2026-05-04 22:21 -34.05904 -59.15225 23345 ft 379 kts 300°
2026-05-04 22:21 -34.04259 -59.17755 23891 ft 391 kts 304°
2026-05-04 22:22 -34.02473 -59.20338 23908 ft 410 kts 305°
2026-05-04 22:22 -34.00596 -59.23015 23910 ft 425 kts 305°
2026-05-04 22:22 -33.98698 -59.25741 23914 ft 417 kts 305°
2026-05-04 22:22 -33.96874 -59.28355 23916 ft 398 kts 304°
2026-05-04 22:23 -33.95139 -59.30865 23907 ft 385 kts 304°
2026-05-04 22:23 -33.93441 -59.33308 23903 ft 375 kts 304°
2026-05-04 22:23 -33.91784 -59.35692 23897 ft 368 kts 304°
2026-05-04 22:23 -33.90149 -59.38037 23899 ft 363 kts 304°
2026-05-04 22:24 -33.88536 -59.40356 23902 ft 359 kts 304°
2026-05-04 22:24 -33.86936 -59.42648 23896 ft 356 kts 304°
2026-05-04 22:24 -33.85350 -59.44924 23896 ft 354 kts 304°
2026-05-04 22:24 -33.83772 -59.47184 23896 ft 352 kts 304°
2026-05-04 22:25 -33.82201 -59.49434 23897 ft 351 kts 304°
2026-05-04 22:25 -33.80634 -59.51673 23897 ft 349 kts 304°
2026-05-04 22:25 -33.79073 -59.53907 23897 ft 349 kts 304°
2026-05-04 22:25 -33.77514 -59.56135 23898 ft 348 kts 304°
2026-05-04 22:26 -33.75956 -59.58358 23898 ft 347 kts 304°
2026-05-04 22:26 -33.74403 -59.60578 23898 ft 347 kts 304°
2026-05-04 22:26 -33.72865 -59.62768 23894 ft 347 kts 304°
2026-05-04 22:26 -33.71294 -59.65009 23894 ft 346 kts 304°
2026-05-04 22:27 -33.69740 -59.67220 23895 ft 346 kts 304°
2026-05-04 22:27 -33.68209 -59.69401 23894 ft 346 kts 304°
2026-05-04 22:27 -33.66651 -59.71604 23896 ft 346 kts 304°
2026-05-04 22:27 -33.65099 -59.73811 23892 ft 346 kts 304°
2026-05-04 22:28 -33.63542 -59.76017 23896 ft 346 kts 304°
2026-05-04 22:28 -33.61989 -59.78221 23894 ft 346 kts 304°
2026-05-04 22:28 -33.60432 -59.80423 23898 ft 346 kts 304°
2026-05-04 22:28 -33.58878 -59.82628 23895 ft 346 kts 304°
2026-05-04 22:29 -33.57280 -59.84792 23894 ft 347 kts 306°
2026-05-04 22:29 -33.55697 -59.86969 23892 ft 346 kts 305°
2026-05-04 22:29 -33.54126 -59.89158 23889 ft 346 kts 304°
2026-05-04 22:29 -33.52566 -59.91357 23891 ft 346 kts 304°
2026-05-04 22:30 -33.51002 -59.93554 23893 ft 346 kts 304°
2026-05-04 22:30 -33.49439 -59.95761 23762 ft 350 kts 304°
2026-05-04 22:30 -33.47850 -59.98011 23516 ft 357 kts 304°
2026-05-04 22:30 -33.46241 -60.00300 23210 ft 362 kts 304°
2026-05-04 22:31 -33.44603 -60.02639 22684 ft 371 kts 304°
2026-05-04 22:31 -33.42930 -60.05014 22166 ft 377 kts 307°
2026-05-04 22:31 -33.40783 -60.06927 21634 ft 393 kts 324°
2026-05-04 22:31 -33.38339 -60.08443 21149 ft 398 kts 327°
2026-05-04 22:32 -33.35863 -60.09942 20656 ft 399 kts 326°
2026-05-04 22:32 -33.33474 -60.11607 20171 ft 395 kts 321°
2026-05-04 22:32 -33.32017 -60.12894 19847 ft 393 kts 316°
2026-05-04 22:32 -33.29913 -60.14971 19387 ft 392 kts 315°
2026-05-04 22:33 -33.27807 -60.17040 18924 ft 393 kts 317°
2026-05-04 22:33 -33.25580 -60.18961 18465 ft 395 kts 320°
2026-05-04 22:33 -33.23351 -60.20863 17990 ft 394 kts 319°
2026-05-04 22:33 -33.21171 -60.22838 17470 ft 393 kts 318°
2026-05-04 22:34 -33.18997 -60.24817 16960 ft 393 kts 319°
2026-05-04 22:34 -33.16804 -60.26763 16460 ft 393 kts 319°
2026-05-04 22:34 -33.14610 -60.28706 15963 ft 393 kts 319°
2026-05-04 22:34 -33.12426 -60.30647 15345 ft 385 kts 319°
2026-05-04 22:35 -33.10331 -60.32515 14729 ft 369 kts 319°
2026-05-04 22:35 -33.08303 -60.34320 14122 ft 358 kts 320°
2026-05-04 22:35 -33.06331 -60.36075 13498 ft 350 kts 320°
2026-05-04 22:35 -33.04398 -60.37795 12838 ft 344 kts 320°
2026-05-04 22:36 -33.02489 -60.39488 12187 ft 339 kts 320°
2026-05-04 22:36 -33.00610 -60.41160 11552 ft 336 kts 321°
2026-05-04 22:36 -32.98743 -60.42811 10915 ft 332 kts 321°
2026-05-04 22:36 -32.96982 -60.44380 10348 ft 330 kts 321°
2026-05-04 22:37 -32.95154 -60.45991 9842 ft 325 kts 322°
2026-05-04 22:37 -32.93352 -60.47594 9236 ft 322 kts 322°
2026-05-04 22:37 -32.91562 -60.49174 8637 ft 319 kts 322°
2026-05-04 22:37 -32.89820 -60.50719 8151 ft 314 kts 322°
2026-05-04 22:38 -32.88075 -60.52260 7663 ft 310 kts 323°
2026-05-04 22:38 -32.86350 -60.53786 7208 ft 307 kts 323°
2026-05-04 22:38 -32.84652 -60.55288 6801 ft 303 kts 323°
2026-05-04 22:38 -32.82964 -60.56773 6403 ft 301 kts 323°
2026-05-04 22:39 -32.81291 -60.58258 5985 ft 299 kts 324°
2026-05-04 22:39 -32.79621 -60.59721 5591 ft 297 kts 323°
2026-05-04 22:39 -32.77976 -60.61182 5198 ft 294 kts 324°
2026-05-04 22:39 -32.76335 -60.62619 4810 ft 292 kts 324°
2026-05-04 22:40 -32.74819 -60.64193 4408 ft 290 kts 310°
2026-05-04 22:40 -32.73858 -60.66297 4035 ft 291 kts 294°
2026-05-04 22:40 -32.73505 -60.68661 3645 ft 296 kts 273°
2026-05-04 22:40 -32.73821 -60.71079 3256 ft 301 kts 254°
2026-05-04 22:41 -32.74862 -60.73260 2853 ft 308 kts 235°
2026-05-04 22:41 -32.76497 -60.74912 2444 ft 314 kts 211°
2026-05-04 22:41 -32.78498 -60.75795 2032 ft 296 kts 191°
2026-05-04 22:41 -32.80421 -60.76188 1885 ft 264 kts 191°
2026-05-04 22:42 -32.82119 -60.76660 1676 ft 237 kts 194°
2026-05-04 22:42 -32.83595 -60.76999 1442 ft 198 kts 186°
2026-05-04 22:42 -32.84733 -60.77177 1375 ft 145 kts 188°
2026-05-04 22:42 -32.85687 -60.77394 1001 ft 135 kts 191°
2026-05-04 22:43 -32.86581 -60.77630 687 ft 127 kts 191°
2026-05-04 22:43 -32.87408 -60.77797 463 ft 117 kts 188°
2026-05-04 22:43 -32.88293 -60.77995 355 ft 136 kts 191°
2026-05-04 22:43 -32.89164 -60.78205 133 ft 119 kts 191°
2026-05-04 22:44 -32.89896 -60.78366 91 ft 95 kts 192°
2026-05-04 22:44 -32.90405 -60.78483 90 ft 62 kts 194°
2026-05-04 22:44 -32.90736 -60.78559 93 ft 34 kts 188°
2026-05-04 22:44 -32.90899 -60.78571 93 ft 9 kts 129°
2026-05-04 22:45 -32.90955 -60.78543 93 ft 10 kts 160°
2026-05-04 22:45 -32.91054 -60.78495 92 ft 0 kts 152°